Hill City, KS

11:43 PM CST on February 27, 2017 (GMT -0600)
Hill City Municipal

Weather History for KHLC - November, 2012

Change the Weather History Date:

Friday, November 16, 2012

  Actual Average Record
Temperature  
Mean Temperature 40 °F 40 °F  
Max Temperature 61 °F 54 °F 85 °F (2016)
Min Temperature 19 °F 27 °F -3 °F (1955)
Degree Days  
Heating Degree Days 26    
Moisture  
Dew Point 28 °F    
Average Humidity 68    
Maximum Humidity 96    
Minimum Humidity 38    
Precipitation  
Precipitation 0.00 in 0.03 in 1.33 in (1996)
Month to date precipitation 0.00 0.59  
Year to date precipitation 9.74 21.87  
Sea Level Pressure  
Sea Level Pressure 30.36 in    
Wind  
Wind Speed 5 mph (South)    
Max Wind Speed 16 mph    
Max Gust Speed 22 mph    
Visibility 10 miles    
Events      
T = Trace of Precipitation, MM = Missing Value Source: NWS Daily Summary

Daily Weather History Graph

Daily Weather History Graph

Search for Another Location

Airport or City:

Trip Planner

Search our weather history database for the weather conditions in past years. The results will help you decide how hot, cold, wet, or windy it might be!

Date:

Astronomy

Nov. 16, 2012 Rise Set
Actual Time 7:24 AM CST 5:23 PM CST
Civil Twilight 6:55 AM CST 5:52 PM CST
Nautical Twilight 6:23 AM CST 6:24 PM CST
Astronomical Twilight 5:51 AM CST 6:56 PM CST
Moon 10:20 AM CST (11/16) 8:25 PM CST (11/16)
Length of Visible Light 10h 56m
Length of Day
9h 58m
Waxing Crescent, 12% of the Moon is Illuminated
Nov 16
Waxing Crescent
Nov 20
First Quarter
Nov 28
Full
Dec 6
Last Quarter
Dec 13
New

Hourly Weather History & Observations

Time (CST) Temp. Windchill Dew Point Humidity Pressure Visibility Wind Dir Wind Speed Gust Speed Precip Events Conditions
12:53 AM 27.0 °F 21.6 °F 21.0 °F 78% 30.46 in 10.0 mi North 4.6 mph - N/A   Clear
1:53 AM 23.0 °F 18.4 °F 19.9 °F 88% 30.45 in 10.0 mi SW 3.5 mph - N/A   Clear
2:53 AM 24.1 °F - 19.9 °F 84% 30.46 in 10.0 mi Calm Calm - N/A   Clear
3:53 AM 21.0 °F - 18.0 °F 88% 30.44 in 10.0 mi Calm Calm - N/A   Clear
4:53 AM 21.0 °F - 18.0 °F 88% 30.45 in 10.0 mi Calm Calm - N/A   Clear
5:53 AM 23.0 °F 18.4 °F 21.0 °F 92% 30.46 in 10.0 mi West 3.5 mph - N/A   Clear
6:53 AM 19.0 °F - 18.0 °F 96% 30.46 in 10.0 mi Calm Calm - N/A   Clear
7:53 AM 21.9 °F 15.7 °F 19.9 °F 92% 30.47 in 10.0 mi WSW 4.6 mph - N/A   Clear
8:53 AM 28.9 °F - 24.1 °F 82% 30.46 in 10.0 mi Calm Calm - N/A   Clear
9:53 AM 37.9 °F - 28.0 °F 68% 30.44 in 10.0 mi Calm Calm - N/A   Clear
10:53 AM 46.9 °F - 30.9 °F 54% 30.42 in 10.0 mi Variable 3.5 mph - N/A   Clear
12:53 PM 57.0 °F - 33.1 °F 40% 30.34 in 10.0 mi South 12.7 mph 19.6 mph N/A   Clear
1:53 PM 59.0 °F - 34.0 °F 39% 30.31 in 10.0 mi South 13.8 mph 18.4 mph N/A   Clear
2:53 PM 60.1 °F - 34.0 °F 38% 30.28 in 10.0 mi SSE 16.1 mph 21.9 mph N/A   Clear
3:53 PM 60.1 °F - 34.0 °F 38% 30.27 in 10.0 mi South 15.0 mph 21.9 mph N/A   Clear
4:53 PM 57.9 °F - 35.1 °F 42% 30.26 in 10.0 mi South 13.8 mph - N/A   Clear
5:53 PM 52.0 °F - 36.0 °F 54% 30.26 in 10.0 mi SSE 8.1 mph - N/A   Clear
6:53 PM 48.9 °F - 36.0 °F 61% 30.28 in 10.0 mi SSE 8.1 mph - N/A   Clear
7:53 PM 46.9 °F - 37.0 °F 68% 30.27 in 10.0 mi South 9.2 mph - N/A   Clear
8:53 PM 46.0 °F 42.5 °F 36.0 °F 68% 30.26 in 10.0 mi South 6.9 mph - N/A   Clear
9:53 PM 45.0 °F 40.1 °F 35.1 °F 68% 30.25 in 10.0 mi SSE 9.2 mph - N/A   Clear
11:53 PM 43.0 °F 38.8 °F 33.1 °F 68% 30.21 in 10.0 mi SSE 6.9 mph - N/A   Clear